This demonstration page uses our WeatherBlox Daily Observations layout. Learn more.

Left ArrowRight Arrow

31.31129, -92.44514

Hourly Observations for August 18, 2018

Temp ( °F °C ) Dew Point ( °F °C ) Humidity (%) Winds ( mph kmh ) Pressure ( in mb ) Visibility ( mi km ) Precip ( " mm )
12:53 am 00:53 Clear 77 25 73 22.8 88 88 SSE 3 6 30.04 1017 10 16 0.00 0.00
1:53 am 01:53 Clear with Light Rain 78 25.6 74 23.3 87 87 SE 3 6 30.03 1017 10 16 0.00 0.03
2:53 am 02:53 Mostly Clear 77 25 74 23.3 90 90 Calm 30.03 1017 10 16 0.00 0.03
3:53 am 03:53 Clear with Rain 77 25 74 23.3 90 90 SE 5 7 30.04 1017 10 16 0.00 0.03
4:53 am 04:53 Clear 75 23.9 74 23.3 96 96 SSE 3 6 30.04 1017 9 14 0.00 0.03
5:53 am 05:53 Clear 75 23.9 74 23.3 96 96 SSE 3 6 30.04 1017 8 13 0.00 0.00
6:53 am 06:53 Sunny with Mist and Fog 75 23.9 74 23.3 96 96 SSE 5 7 30.04 1017 6 10 0.00 0.00
7:53 am 07:53 Sunny 77 25 75 23.9 94 94 SSE 3 6 30.05 1018 8 13 0.00 0.00
8:53 am 08:53 Sunny 84 28.9 76 24.4 77 77 WSW 7 11 30.05 1018 10 16 0.00 0.00
9:53 am 09:53 Mostly Sunny 87 30.6 75 23.9 67 67 W 10 17 30.04 1017 10 16 0.00 0.00
10:53 am 10:53 Mostly Sunny 90 32.2 74 23.3 59 59 WSW 9 15 30.03 1017 10 16 0.00 0.00
11:53 am 11:53 Sunny 93 33.9 73 22.8 52 52 WNW 8 13 30.01 1016 10 16 0.00 0.00
12:53 pm 12:53 Partly Cloudy 93 33.9 72 22.2 50 50 Calm 29.99 1016 10 16 0.00 0.00
1:53 pm 13:53 Mostly Cloudy 96 35.6 70 21.1 43 43 VRB 5 7 29.97 1015 10 16 0.00 0.00
2:53 pm 14:53 Mostly Sunny 94 34.4 71 21.7 48 48 VRB 3 6 29.94 1014 10 16 0.00 0.00
3:53 pm 15:53 Sunny 97 36.1 71 21.7 43 43 SSW 8 13 29.91 1013 10 16 0.00 0.00
4:53 pm 16:53 Sunny 97 36.1 70 21.1 42 42 SW 6 9 29.89 1012 10 16 0.00 0.00
5:53 pm 17:53 Sunny 95 35 71 21.7 46 46 S 6 9 29.89 1012 10 16 0.00 0.00
6:53 pm 18:53 Sunny 92 33.3 71 21.7 51 51 SSW 10 17 29.88 1012 10 16 0.00 0.00
7:53 pm 19:53 Partly Cloudy 86 30 74 23.3 67 67 S 9 15 29.92 1013 10 16 0.00 0.00
8:53 pm 20:53 Clear 83 28.3 72 22.2 70 70 S 7 11 29.92 1013 10 16 0.00 0.00
9:53 pm 21:53 Clear 80 26.7 71 21.7 74 74 S 6 9 29.91 1013 10 16 0.00 0.00
10:53 pm 22:53 Clear 80 26.7 73 22.8 79 79 SSE 7 11 29.94 1014 10 16 0.00 0.00
11:53 pm 23:53 Clear 79 26.1 74 23.3 85 85 S 5 7 29.93 1014 10 16 0.00 0.00

Powered by AerisWeather